Stations météo

réclame
Mon MeteoGroup
Cagliari/Elmas, Italie (16560): Température de l'air & dewpoint: 08.12.2018 16:00:00 - 14.12.2018 16:00:00 (CET)Cagliari/Elmas, Italie (16560): Vitesse du vent: 08.12.2018 16:00:00 - 14.12.2018 16:00:00 (CET)Cagliari/Elmas, Italie (16560): Direction du vent: 08.12.2018 16:00:00 - 14.12.2018 16:00:00 (CET)Cagliari/Elmas, Italie (16560): reduced air pressure: 08.12.2018 16:00:00 - 14.12.2018 16:00:00 (CET)Cagliari/Elmas, Italie (16560): visibility: 08.12.2018 16:00:00 - 14.12.2018 16:00:00 (CET)Cagliari/Elmas, Italie (16560): Quantités de précipitations: 08.12.2018 16:00:00 - 14.12.2018 16:00:00 (CET)
Date & Time tt [°C] td [°C] ff [km/h] ff [knt] dd ppp [hPa] vv [km] rr [mm]
14.12.2018 16:00:00 - - - - - - - -
14.12.2018 15:00:00 13,0 12,0 8 4 WNW - 6 -
14.12.2018 14:00:00 13,0 12,0 8 4 W - 10 -
14.12.2018 13:00:00 13,1 12,2 8 4 W 1006,8 30 -
14.12.2018 12:00:00 13,0 12,0 4 2 - - 10 -
14.12.2018 11:00:00 13,0 12,0 4 2 N - 10 -
14.12.2018 10:00:00 12,3 11,8 4 2 - 1007,1 10 0,0
14.12.2018 09:00:00 12,0 12,0 5 3 NNE - 10 -
14.12.2018 08:00:00 12,0 12,0 5 3 E - 10 -
14.12.2018 07:00:00 12,4 11,6 8 4 ENE 1005,6 10 -
14.12.2018 06:00:00 13,0 11,0 9 5 ESE - 10 -
14.12.2018 05:00:00 13,0 11,0 13 7 NE - 10 -
14.12.2018 04:00:00 12,9 11,2 9 5 ENE 1006,1 10 0,0
14.12.2018 03:00:00 13,0 11,0 8 4 NNE - 10 -
14.12.2018 02:00:00 14,0 10,0 9 5 SSW - 10 -
14.12.2018 01:00:00 13,8 10,4 15 8 SW 1007,0 10 -
14.12.2018 00:00:00 14,0 12,0 21 11 SW - 8 -
13.12.2018 23:00:00 14,0 12,0 2 1 - - 10 -
13.12.2018 22:00:00 14,1 12,0 8 4 SSW 1007,1 10 0,0
13.12.2018 21:00:00 15,0 12,0 8 4 S - 10 -
13.12.2018 20:00:00 15,0 11,0 5 3 SSW - 10 -
13.12.2018 19:00:00 14,5 12,0 2 1 - 1007,4 10 -
13.12.2018 18:00:00 14,0 12,0 8 4 ENE - 10 -
13.12.2018 17:00:00 14,0 13,0 11 6 NE - 10 -
13.12.2018 16:00:00 14,4 12,8 11 6 NE 1008,7 10 0,0
13.12.2018 15:00:00 14,0 12,0 8 4 E - 10 -
13.12.2018 14:00:00 14,0 11,0 13 7 E - 10 -
13.12.2018 13:00:00 13,7 9,6 5 3 ESE 1010,7 10 -
13.12.2018 12:00:00 12,0 10,0 4 2 - - 10 -
13.12.2018 11:00:00 11,0 9,0 4 2 SSW - 10 -
13.12.2018 10:00:00 9,9 8,3 4 2 - 1013,3 9 0,0
13.12.2018 09:00:00 8,0 7,0 5 3 NNW - 10 -
13.12.2018 08:00:00 8,0 7,0 5 3 N - 10 -
13.12.2018 07:00:00 8,2 7,3 9 5 NW 1014,0 10 -
13.12.2018 06:00:00 8,0 7,0 9 5 NW - 10 -
13.12.2018 05:00:00 7,0 6,0 9 5 NNW - 10 -
13.12.2018 04:00:00 7,4 6,5 11 6 NNW 1014,5 10 0,0
13.12.2018 03:00:00 9,0 7,0 8 4 NNE - 10 -
13.12.2018 02:00:00 9,0 8,0 9 5 NNW - 10 -
13.12.2018 01:00:00 9,1 7,8 9 5 N 1015,8 10 -
13.12.2018 00:00:00 10,0 9,0 9 5 N - 10 -
12.12.2018 23:00:00 9,0 9,0 8 4 NW - 9 -
12.12.2018 22:00:00 9,5 8,9 5 3 WNW 1016,4 10 0,0
12.12.2018 21:00:00 10,0 10,0 2 1 - - 10 -
12.12.2018 20:00:00 11,0 10,0 4 2 NNE - 10 -
12.12.2018 19:00:00 10,5 9,6 4 2 SW 1016,9 10 -
12.12.2018 18:00:00 12,0 11,0 8 4 SW - 10 -
12.12.2018 17:00:00 13,0 11,0 2 1 - - 10 -
12.12.2018 16:00:00 12,3 11,2 2 1 - 1016,9 10 0,0
12.12.2018 15:00:00 12,0 11,0 2 1 - - 10 -
12.12.2018 14:00:00 11,0 10,0 9 5 SW - 6 -
12.12.2018 13:00:00 11,6 9,2 4 2 SSW 1018,4 10 -
12.12.2018 12:00:00 11,0 9,0 5 3 SW - 10 -
12.12.2018 11:00:00 11,0 9,0 2 1 - - 10 -
12.12.2018 10:00:00 11,1 8,4 5 3 NNE 1019,4 10 0,0
12.12.2018 09:00:00 8,0 7,0 9 5 N - 10 -
12.12.2018 08:00:00 8,0 6,0 8 4 NW - 10 -
12.12.2018 07:00:00 7,7 5,6 8 4 N 1018,6 10 -
12.12.2018 06:00:00 8,0 6,0 8 4 N - 10 -
12.12.2018 05:00:00 8,0 6,0 11 6 N - 10 -
12.12.2018 04:00:00 7,0 5,5 11 6 NNW 1019,2 10 0,0
12.12.2018 03:00:00 7,0 6,0 11 6 NNW - 10 -
12.12.2018 02:00:00 6,0 5,0 9 5 NNW - 10 -
12.12.2018 01:00:00 6,7 5,4 5 3 NW 1019,6 10 -
12.12.2018 00:00:00 8,0 7,0 2 1 - - 10 -
11.12.2018 23:00:00 7,0 6,0 5 3 NNE - 10 -
11.12.2018 22:00:00 9,1 6,6 5 3 NE 1020,0 10 0,0
11.12.2018 21:00:00 10,0 7,0 8 4 N - 10 -
11.12.2018 20:00:00 10,0 7,0 2 1 - - 10 -
11.12.2018 19:00:00 10,7 7,1 5 3 NW 1019,5 10 -
11.12.2018 18:00:00 12,0 7,0 16 9 NNW - 10 -
11.12.2018 17:00:00 13,0 7,0 16 9 NNW - 10 -
11.12.2018 16:00:00 14,5 7,5 16 9 NNW 1018,8 10 0,0
11.12.2018 15:00:00 14,0 7,0 21 11 NNW - 10 -
11.12.2018 14:00:00 14,0 6,0 24 13 NNW - 10 -
11.12.2018 13:00:00 15,2 6,1 21 11 NW 1019,4 10 -
11.12.2018 12:00:00 15,0 6,0 18 10 NNW - 10 -
11.12.2018 11:00:00 13,0 6,0 18 10 NW - 10 -
11.12.2018 10:00:00 12,1 7,7 4 2 - 1020,5 10 0,0
11.12.2018 09:00:00 9,0 6,0 4 2 - - 10 -
11.12.2018 08:00:00 9,0 5,0 4 2 - - 10 -
11.12.2018 07:00:00 8,6 5,5 8 4 E 1020,1 10 -
11.12.2018 06:00:00 9,0 6,0 11 6 N - 10 -
11.12.2018 05:00:00 9,0 6,0 8 4 N - 10 -
11.12.2018 04:00:00 9,0 6,0 9 5 NNW 1020,2 10 0,0
11.12.2018 03:00:00 9,0 7,0 9 5 NNW - 10 -
11.12.2018 02:00:00 9,0 7,0 8 4 NW - 10 -
11.12.2018 01:00:00 8,4 6,2 9 5 N 1021,3 10 -
11.12.2018 00:00:00 9,0 6,0 11 6 N - 10 -
10.12.2018 23:00:00 10,0 7,0 16 9 N - 10 -
10.12.2018 22:00:00 9,5 6,8 15 8 NNW 1022,2 10 0,0
10.12.2018 21:00:00 11,0 7,0 11 6 NNW - 10 -
10.12.2018 20:00:00 12,0 7,0 11 6 NNW - 10 -
10.12.2018 19:00:00 12,4 7,0 26 14 NW 1021,2 10 -
10.12.2018 18:00:00 13,0 6,0 26 14 NNW - 10 -
10.12.2018 17:00:00 14,0 6,0 44 24 NW - 10 -
10.12.2018 16:00:00 14,0 6,4 39 21 NW 1019,8 10 0,0
10.12.2018 15:00:00 15,0 6,0 24 13 NNW - 10 -
10.12.2018 14:00:00 15,0 7,0 35 19 NW - 10 -
10.12.2018 13:00:00 15,1 6,8 37 20 NW 1020,9 10 -
10.12.2018 12:00:00 15,0 7,0 41 22 NW - 10 -
10.12.2018 11:00:00 15,0 7,0 39 21 NW - 10 -
10.12.2018 10:00:00 14,4 7,2 39 21 NW 1021,1 10 0,0
10.12.2018 09:00:00 14,0 7,0 31 17 NW - 10 -
10.12.2018 08:00:00 14,0 7,0 28 15 NW - 10 -
10.12.2018 07:00:00 13,7 6,8 28 15 NW 1020,0 10 -
10.12.2018 06:00:00 - - - - - - - -
10.12.2018 05:00:00 14,0 7,0 48 26 NW - 10 -
10.12.2018 04:00:00 14,0 7,0 39 21 NW 1019,4 30 0,0
10.12.2018 03:00:00 14,0 7,0 48 26 NNW - 10 -
10.12.2018 02:00:00 15,0 7,0 44 24 NW - 10 -
10.12.2018 01:00:00 15,1 7,2 46 25 NW 1018,5 10 -
10.12.2018 00:00:00 15,0 8,0 41 22 NW - 10 -
09.12.2018 23:00:00 16,0 8,0 31 17 NW - 10 -
09.12.2018 22:00:00 16,2 7,9 31 17 NW 1021,2 10 0,0
09.12.2018 21:00:00 16,0 10,0 29 16 NW - 10 -
09.12.2018 20:00:00 16,0 10,0 41 22 NW - 10 -
09.12.2018 19:00:00 15,9 9,9 41 22 NW 1020,0 10 -
09.12.2018 18:00:00 16,0 11,0 26 14 WNW - 10 -
09.12.2018 17:00:00 16,0 11,0 18 10 WNW - 10 -
09.12.2018 16:00:00 16,6 10,3 34 18 WNW 1019,7 10 0,0
09.12.2018 15:00:00 17,0 10,0 34 18 W - 10 -
09.12.2018 14:00:00 - - - - - - - -
09.12.2018 13:00:00 17,7 11,0 29 16 WNW 1021,6 10 -
09.12.2018 12:00:00 17,0 11,0 26 14 WNW - 10 -
09.12.2018 11:00:00 17,0 11,0 22 12 WNW - 10 -
09.12.2018 10:00:00 15,8 10,6 11 6 NW 1023,6 10 0,0
09.12.2018 09:00:00 15,0 11,0 13 7 NW - 10 -
09.12.2018 08:00:00 15,0 10,0 21 11 WNW - 10 -
09.12.2018 07:00:00 14,1 10,6 28 15 NW 1022,3 10 -
09.12.2018 06:00:00 14,0 11,0 21 11 NW - 10 -
09.12.2018 05:00:00 15,0 9,0 24 13 NW - 10 -
09.12.2018 04:00:00 14,4 8,8 28 15 NW 1022,3 10 0,0
09.12.2018 03:00:00 13,0 9,0 26 14 NW - 10 -
09.12.2018 02:00:00 13,0 8,0 21 11 NW - 10 -
09.12.2018 01:00:00 13,4 7,7 21 11 NW 1022,8 10 -
09.12.2018 00:00:00 13,0 8,0 26 14 NW - 10 -
08.12.2018 23:00:00 14,0 8,0 24 13 NW - 10 -
08.12.2018 22:00:00 13,6 6,8 24 13 NW 1022,7 10 0,0
08.12.2018 21:00:00 13,0 7,0 21 11 NW - 10 -
08.12.2018 20:00:00 13,0 7,0 24 13 NW - 10 -
08.12.2018 19:00:00 13,8 7,1 26 14 NNW 1021,8 10 -
08.12.2018 18:00:00 14,0 7,0 34 18 NW - 10 -
08.12.2018 17:00:00 14,0 7,0 28 15 NNW - 10 -
08.12.2018 16:00:00 15,0 6,0 42 23 NNW - 10 -

tt = Température de l'air
td = dewpoint
ff = Vitesse du vent
dd = Direction du vent
ppp = reduced air pressure
vv = visibility
rr = Quantités de précipitations

stations d'obs. à proximité